,,,PA_Meas_PMT16A,,PR_Meas_QMR101_102,,RH_Meas_QMH101,,SR_Meas_QMS101,,TA_Meas_QMH101,,GenWind,,GenWind,
date,time,status,PA,status,PR,status,RH,status,SR,status,TA,status,DirAvg,status,SpdAvg,
2008-06-01, 00:00:04,VALID,1003.69,VALID,0,VALID,87.7626,VALID,0,VALID,25.8843,VALID,12,VALID,0.716016,
2008-06-01, 00:01:04,VALID,1003.71,VALID,0,VALID,87.9839,VALID,0,VALID,25.9057,VALID,18,VALID,0.735156,
2008-06-01, 00:02:04,VALID,1003.71,VALID,0,VALID,87.9915,VALID,0,VALID,25.8668,VALID,22,VALID,0.244531,
2008-06-01, 00:03:04,VALID,1003.69,VALID,0,VALID,88.3501,VALID,0,VALID,25.8473,VALID,26,VALID,0.736719,
2008-06-01, 00:04:04,VALID,1003.66,VALID,0,VALID,88.3882,VALID,0,VALID,25.8863,VALID,46,VALID,0.788281,
2008-06-01, 00:05:04,VALID,1003.61,VALID,0,VALID,88.1822,VALID,0,VALID,25.9057,VALID,12,VALID,1.1418,
2008-06-01, 00:06:04,VALID,1003.58,VALID,0,VALID,88.0678,VALID,0,VALID,25.9252,VALID,82,VALID,0.662109,
2008-06-01, 00:07:04,VALID,1003.55,VALID,0,VALID,88.0373,VALID,0,VALID,25.9836,VALID,59,VALID,0.679688,
2008-06-01, 00:08:04,VALID,1003.5,VALID,0,VALID,87.9076,VALID,0,VALID,26.0616,VALID,61,VALID,0.982422,
2008-06-01, 00:09:04,VALID,1003.53,VALID,0,VALID,87.5643,VALID,0,VALID,26.12,VALID,75,VALID,1.06211,
2008-06-01, 00:10:04,VALID,1003.5,VALID,0,VALID,87.2668,VALID,0,VALID,26.1784,VALID,83,VALID,0.651563,
2008-06-01, 00:11:04,VALID,1003.49,VALID,0,VALID,87.0379,VALID,0,VALID,26.2759,VALID,92,VALID,0.976172,
2008-06-01, 00:12:04,VALID,1003.5,VALID,0,VALID,86.7251,VALID,0,VALID,26.3148,VALID,77,VALID,1.05547,
2008-06-01, 00:13:04,VALID,1003.51,VALID,0,VALID,86.4352,VALID,0,VALID,26.3538,VALID,75,VALID,0.980859,
2008-06-01, 00:14:04,VALID,1003.5,VALID,0,VALID,86.275,VALID,0,VALID,26.3927,VALID,120,VALID,1.13711,
2008-06-01, 00:15:04,VALID,1003.51,VALID,0,VALID,86.1529,VALID,0.100563,VALID,26.4317,VALID,81,VALID,0.959766,
2008-06-01, 00:16:04,VALID,1003.48,VALID,0,VALID,85.9546,VALID,0,VALID,26.4707,VALID,31,VALID,0.787109,
2008-06-01, 00:17:04,VALID,1003.49,VALID,0,VALID,85.8631,VALID,0.100563,VALID,26.4492,VALID,65,VALID,0.752734,
2008-06-01, 00:18:04,VALID,1003.43,VALID,0,VALID,85.8783,VALID,0,VALID,26.4512,VALID,53,VALID,0.759766,
2008-06-01, 00:19:05,VALID,1003.42,VALID,0,VALID,85.9165,VALID,0.100563,VALID,26.4512,VALID,54,VALID,0.816016,
2008-06-01, 00:20:05,VALID,1003.42,VALID,0,VALID,86.0309,VALID,0,VALID,26.3927,VALID,24,VALID,0.547266,
2008-06-01, 00:21:05,VALID,1003.39,VALID,0,VALID,86.2216,VALID,0,VALID,26.3128,VALID,29,VALID,0.675,
2008-06-01, 00:22:05,VALID,1003.42,VALID,0,VALID,86.4734,VALID,0,VALID,26.2544,VALID,39,VALID,0.43125,
2008-06-01, 00:23:05,VALID,1003.45,VALID,0,VALID,86.7556,VALID,0,VALID,26.2174,VALID,16,VALID,1.11133,
2008-06-01, 00:24:05,VALID,1003.43,VALID,0,VALID,86.954,VALID,0,VALID,26.1765,VALID,14,VALID,1.03867,
2008-06-01, 00:25:05,VALID,1003.41,VALID,0,VALID,87.1294,VALID,0,VALID,26.1959,VALID,71,VALID,1.33281,
2008-06-01, 00:26:05,VALID,1003.38,VALID,0,VALID,86.9845,VALID,0,VALID,26.2759,VALID,35,VALID,0.720703,
2008-06-01, 00:27:05,VALID,1003.33,VALID,0,VALID,86.748,VALID,0,VALID,26.2759,VALID,48,VALID,0.863672,
2008-06-01, 00:28:05,VALID,1003.33,VALID,0,VALID,86.7099,VALID,0,VALID,26.2369,VALID,32,VALID,0.498828,
2008-06-01, 00:29:05,VALID,1003.29,VALID,0,VALID,86.7861,VALID,0.100563,VALID,26.1979,VALID,26,VALID,0.567578,
2008-06-01, 00:30:05,VALID,1003.3,VALID,0,VALID,87.0684,VALID,0,VALID,26.159,VALID,7,VALID,1.32148,
2008-06-01, 00:31:05,VALID,1003.27,VALID,0,VALID,87.3507,VALID,0,VALID,26.1375,VALID,25,VALID,0.651563,
2008-06-01, 00:32:05,VALID,1003.27,VALID,0,VALID,87.2057,VALID,0,VALID,26.12,VALID,21,VALID,0.479297,
2008-06-01, 00:33:05,VALID,1003.25,VALID,0,VALID,87.5719,VALID,0,VALID,26.0791,VALID,26,VALID,0.844141,
2008-06-01, 00:34:05,VALID,1003.23,VALID,0,VALID,87.9152,VALID,0,VALID,26.1005,VALID,20,VALID,1.42969,
2008-06-01, 00:35:05,VALID,1003.22,VALID,0,VALID,87.8847,VALID,0,VALID,26.1395,VALID,11,VALID,0.730078,
2008-06-01, 00:36:05,VALID,1003.19,VALID,0,VALID,87.8008,VALID,0,VALID,26.159,VALID,37,VALID,0.758203,
2008-06-01, 00:37:05,VALID,1003.16,VALID,0,VALID,87.5033,VALID,0,VALID,26.1979,VALID,351,VALID,0.765625,
2008-06-01, 00:38:05,VALID,1003.13,VALID,0,VALID,87.4575,VALID,0,VALID,26.1979,VALID,36,VALID,1.36641,
2008-06-01, 00:39:05,VALID,1003.15,VALID,0,VALID,87.3583,VALID,0,VALID,26.1765,VALID,26,VALID,0.712891,
2008-06-01, 00:40:05,VALID,1003.15,VALID,0,VALID,87.4117,VALID,0,VALID,26.1784,VALID,39,VALID,0.697656,
2008-06-01, 00:41:05,VALID,1003.16,VALID,0,VALID,87.4575,VALID,0,VALID,26.159,VALID,36,VALID,0.336328,
2008-06-01, 00:42:05,VALID,1003.2,VALID,0,VALID,87.5338,VALID,0,VALID,26.1375,VALID,35,VALID,0.571484,
2008-06-01, 00:43:05,VALID,1003.21,VALID,0,VALID,87.6329,VALID,0,VALID,26.12,VALID,35,VALID,0.534766,
2008-06-01, 00:44:05,VALID,1003.19,VALID,0,VALID,87.9762,VALID,0,VALID,26.0596,VALID,26,VALID,1.19609,
2008-06-01, 00:45:05,VALID,1003.19,VALID,0,VALID,88.022,VALID,0,VALID,26.081,VALID,360,VALID,0.615625,
2008-06-01, 00:46:05,VALID,1003.19,VALID,0,VALID,87.9305,VALID,0,VALID,26.081,VALID,1,VALID,0.483984,
2008-06-01, 00:47:05,VALID,1003.17,VALID,0,VALID,88.0068,VALID,0,VALID,26.081,VALID,360,VALID,0.723437,
2008-06-01, 00:48:05,VALID,1003.2,VALID,0,VALID,88.0144,VALID,0,VALID,26.0616,VALID,7,VALID,0.900391,
2008-06-01, 00:49:05,VALID,1003.2,VALID,0,VALID,88.3501,VALID,0,VALID,26.0616,VALID,33,VALID,1.93359,
2008-06-01, 00:50:05,VALID,1003.21,VALID,0,VALID,88.2356,VALID,0.100563,VALID,26.1395,VALID,37,VALID,0.932813,
2008-06-01, 00:51:05,VALID,1003.18,VALID,0,VALID,88.0678,VALID,0.100563,VALID,26.1375,VALID,360,VALID,0.930078,
2008-06-01, 00:52:05,VALID,1003.14,VALID,0,VALID,87.8237,VALID,0,VALID,26.2564,VALID,30,VALID,1.34609,
2008-06-01, 00:53:05,VALID,1003.14,VALID,0,VALID,87.4956,VALID,0,VALID,26.2739,VALID,22,VALID,0.813672,
2008-06-01, 00:54:05,VALID,1003.11,VALID,0,VALID,87.4117,VALID,0,VALID,26.2739,VALID,21,VALID,1.02539,
2008-06-01, 00:55:05,VALID,1003.15,VALID,0,VALID,87.5033,VALID,0.100563,VALID,26.2953,VALID,33,VALID,0.457812,
2008-06-01, 00:56:05,VALID,1003.15,VALID,0,VALID,87.5643,VALID,0,VALID,26.2544,VALID,59,VALID,0.83125,
2008-06-01, 00:57:05,VALID,1003.15,VALID,0,VALID,87.4117,VALID,0,VALID,26.3148,VALID,32,VALID,0.794141,
2008-06-01, 00:58:05,VALID,1003.17,VALID,0,VALID,87.3049,VALID,0,VALID,26.2953,VALID,25,VALID,0.472656,
2008-06-01, 00:59:05,VALID,1003.13,VALID,0,VALID,87.3583,VALID,0,VALID,26.2953,VALID,28,VALID,1.4293,
2008-06-01, 01:00:05,VALID,1003.08,VALID,0,VALID,87.4041,VALID,0,VALID,26.2759,VALID,7,VALID,1.12891,
2008-06-01, 01:01:05,VALID,1003.12,VALID,0,VALID,87.4422,VALID,0,VALID,26.3148,VALID,15,VALID,1.26523,
2008-06-01, 01:02:05,VALID,1003.11,VALID,0,VALID,87.1828,VALID,0,VALID,26.3927,VALID,33,VALID,2.27305,
2008-06-01, 01:03:05,VALID,1003.12,VALID,0,VALID,86.7938,VALID,0,VALID,26.4492,VALID,73,VALID,1.00078,
2008-06-01, 01:04:05,VALID,1003.12,VALID,0,VALID,86.6717,VALID,0,VALID,26.4901,VALID,13,VALID,0.725781,
2008-06-01, 01:05:05,VALID,1003.1,VALID,0,VALID,86.7099,VALID,0,VALID,26.5096,VALID,64,VALID,1.44141,
2008-06-01, 01:06:05,VALID,1003.11,VALID,0,VALID,86.5725,VALID,0,VALID,26.5096,VALID,46,VALID,0.963672,
2008-06-01, 01:07:05,VALID,1003.1,VALID,0,VALID,86.5573,VALID,0.100563,VALID,26.5076,VALID,34,VALID,0.794531,
2008-06-01, 01:08:05,VALID,1003.1,VALID,0,VALID,86.6107,VALID,0.100563,VALID,26.5291,VALID,64,VALID,0.959375,
2008-06-01, 01:09:05,VALID,1003.1,VALID,0,VALID,86.5954,VALID,0,VALID,26.5096,VALID,14,VALID,0.793359,
2008-06-01, 01:10:05,VALID,1003.1,VALID,0,VALID,86.7175,VALID,0,VALID,26.4901,VALID,72,VALID,1.0957,
2008-06-01, 01:11:05,VALID,1003.05,VALID,0,VALID,86.809,VALID,0,VALID,26.4707,VALID,26,VALID,0.714844,
2008-06-01, 01:12:05,VALID,1003.02,VALID,0,VALID,86.9158,VALID,0,VALID,26.4707,VALID,24,VALID,0.901563,
2008-06-01, 01:13:05,VALID,1002.99,VALID,0,VALID,86.9387,VALID,0,VALID,26.4492,VALID,38,VALID,1.56914,
2008-06-01, 01:14:05,VALID,1002.92,VALID,0,VALID,86.8243,VALID,0,VALID,26.4901,VALID,32,VALID,1.37031,
2008-06-01, 01:15:05,VALID,1002.93,VALID,0,VALID,86.748,VALID,0,VALID,26.5096,VALID,24,VALID,1.25508,
2008-06-01, 01:16:05,VALID,1002.93,VALID,0,VALID,86.6793,VALID,0,VALID,26.5096,VALID,21,VALID,1.31523,
2008-06-01, 01:17:05,VALID,1002.91,VALID,0,VALID,86.7175,VALID,0,VALID,26.4922,VALID,25,VALID,0.907031,
2008-06-01, 01:18:05,VALID,1002.88,VALID,0,VALID,86.7633,VALID,0,VALID,26.4901,VALID,39,VALID,0.810938,
2008-06-01, 01:19:05,VALID,1002.87,VALID,0,VALID,86.7861,VALID,0,VALID,26.4492,VALID,23,VALID,1.38008,
2008-06-01, 01:20:05,VALID,1002.84,VALID,0,VALID,86.7327,VALID,0,VALID,26.4901,VALID,32,VALID,1.41133,
2008-06-01, 01:21:05,VALID,1002.81,VALID,0,VALID,86.7175,VALID,0,VALID,26.4901,VALID,28,VALID,0.381641,
2008-06-01, 01:22:05,VALID,1002.82,VALID,0,VALID,86.7861,VALID,0,VALID,26.4512,VALID,1,VALID,0.804688,
2008-06-01, 01:23:05,VALID,1002.85,VALID,0,VALID,86.9921,VALID,0,VALID,26.4297,VALID,35,VALID,1.6582,
2008-06-01, 01:24:05,VALID,1002.86,VALID,0,VALID,87.0532,VALID,0,VALID,26.4122,VALID,12,VALID,0.791406,
2008-06-01, 01:25:05,VALID,1002.88,VALID,0,VALID,87.2286,VALID,0,VALID,26.3518,VALID,28,VALID,0.712891,
2008-06-01, 01:26:05,VALID,1002.94,VALID,0,VALID,87.3888,VALID,0,VALID,26.3323,VALID,40,VALID,1.04336,
2008-06-01, 01:27:05,VALID,1003.01,VALID,0,VALID,87.6329,VALID,0,VALID,26.3538,VALID,74,VALID,1.6457,
2008-06-01, 01:28:05,VALID,1003.03,VALID,0,VALID,87.7169,VALID,0,VALID,26.3733,VALID,67,VALID,1.65664,
2008-06-01, 01:29:05,VALID,1003.1,VALID,0,VALID,87.9686,VALID,0,VALID,26.3733,VALID,69,VALID,1.40391,
2008-06-01, 01:30:05,VALID,1003.13,VALID,0,VALID,88.4874,VALID,0,VALID,26.3343,VALID,65,VALID,1.70898,
2008-06-01, 01:31:05,VALID,1003.08,VALID,0.5,VALID,87.3049,VALID,0,VALID,26.1765,VALID,46,VALID,2.52578,
2008-06-01, 01:32:05,VALID,1003.08,VALID,0,VALID,87.5719,VALID,0,VALID,26.081,VALID,99,VALID,2.57969,
2008-06-01, 01:33:05,VALID,1002.99,VALID,0.5,VALID,87.7779,VALID,0,VALID,25.9252,VALID,108,VALID,1.54023,
2008-06-01, 01:34:05,VALID,1002.99,VALID,0,VALID,88.4874,VALID,0,VALID,25.7889,VALID,116,VALID,1.93828,
2008-06-01, 01:35:05,VALID,1002.96,VALID,0,VALID,89.3342,VALID,0,VALID,25.7109,VALID,100,VALID,1.42773,
2008-06-01, 01:36:05,VALID,1002.9,VALID,0,VALID,89.7614,VALID,0,VALID,25.6136,VALID,134,VALID,1.53437,
2008-06-01, 01:37:05,VALID,1002.91,VALID,0,VALID,90.2268,VALID,0,VALID,25.6136,VALID,109,VALID,1.02305,
2008-06-01, 01:38:05,VALID,1002.88,VALID,0,VALID,90.6235,VALID,0,VALID,25.5357,VALID,44,VALID,0.499609,
2008-06-01, 01:39:05,VALID,1002.9,VALID,0,VALID,91.0812,VALID,0,VALID,25.4577,VALID,71,VALID,0.564453,
2008-06-01, 01:40:05,VALID,1002.92,VALID,0,VALID,91.4474,VALID,0.100563,VALID,25.3993,VALID,56,VALID,0.474609,
2008-06-01, 01:41:05,VALID,1002.9,VALID,0,VALID,91.7907,VALID,0,VALID,25.3409,VALID,80,VALID,0.400391,
2008-06-01, 01:42:05,VALID,1002.91,VALID,0,VALID,92.0958,VALID,0,VALID,25.3019,VALID,77,VALID,0.805078,
2008-06-01, 01:43:05,VALID,1002.93,VALID,0,VALID,92.3705,VALID,0,VALID,25.263,VALID,76,VALID,0.408984,
2008-06-01, 01:44:05,VALID,1002.96,VALID,0,VALID,92.5917,VALID,0,VALID,25.2435,VALID,75,VALID,0.320703,
2008-06-01, 01:45:05,VALID,1002.92,VALID,0,VALID,92.7977,VALID,0,VALID,25.224,VALID,74,VALID,0.335156,
2008-06-01, 01:46:05,VALID,1002.94,VALID,0,VALID,92.9579,VALID,0,VALID,25.2046,VALID,73,VALID,0.380859,
2008-06-01, 01:47:05,VALID,1002.96,VALID,0,VALID,93.1334,VALID,0,VALID,25.224,VALID,31,VALID,0.281641,
2008-06-01, 01:48:05,VALID,1002.95,VALID,0,VALID,93.2402,VALID,0,VALID,25.2046,VALID,58,VALID,0.445703,
2008-06-01, 01:49:05,VALID,1002.98,VALID,0,VALID,93.3394,VALID,0,VALID,25.224,VALID,57,VALID,0.332422,
2008-06-01, 01:50:05,VALID,1002.99,VALID,0,VALID,93.4462,VALID,0,VALID,25.2046,VALID,55,VALID,0.447656,
2008-06-01, 01:51:05,VALID,1002.99,VALID,0,VALID,93.5606,VALID,0,VALID,25.1832,VALID,45,VALID,0.435937,
2008-06-01, 01:52:05,VALID,1003.01,VALID,0,VALID,93.675,VALID,0,VALID,25.2046,VALID,52,VALID,0.562109,
2008-06-01, 01:53:05,VALID,1002.97,VALID,0,VALID,93.7589,VALID,0,VALID,25.2046,VALID,89,VALID,0.449609,
2008-06-01, 01:54:05,VALID,1002.95,VALID,0,VALID,93.7513,VALID,0,VALID,25.1832,VALID,83,VALID,0.325,
2008-06-01, 01:55:05,VALID,1002.88,VALID,0,VALID,93.8276,VALID,0,VALID,25.2046,VALID,78,VALID,0.403906,
2008-06-01, 01:56:05,VALID,1002.88,VALID,0,VALID,93.9191,VALID,0,VALID,25.2046,VALID,9,VALID,0.826172,
2008-06-01, 01:57:05,VALID,1002.87,VALID,0,VALID,93.9191,VALID,0,VALID,25.2046,VALID,354,VALID,0.824609,
2008-06-01, 01:58:05,VALID,1002.85,VALID,0,VALID,93.9802,VALID,0,VALID,25.1851,VALID,357,VALID,0.544531,
2008-06-01, 01:59:05,VALID,1002.82,VALID,0,VALID,93.9573,VALID,0,VALID,25.1851,VALID,7,VALID,0.925781,
2008-06-01, 02:00:05,VALID,1002.8,VALID,0,VALID,93.9573,VALID,0,VALID,25.187,VALID,18,VALID,1.15391,
2008-06-01, 02:01:05,VALID,1002.81,VALID,0,VALID,94.0259,VALID,0,VALID,25.1851,VALID,32,VALID,0.582031,
2008-06-01, 02:02:05,VALID,1002.81,VALID,0,VALID,94.0259,VALID,0,VALID,25.1832,VALID,29,VALID,1.1418,
2008-06-01, 02:03:05,VALID,1002.78,VALID,0,VALID,93.9573,VALID,0,VALID,25.224,VALID,23,VALID,1.00117,
2008-06-01, 02:04:05,VALID,1002.79,VALID,0,VALID,93.8657,VALID,0,VALID,25.2221,VALID,13,VALID,0.430859,
2008-06-01, 02:05:05,VALID,1002.74,VALID,0,VALID,93.7971,VALID,0,VALID,25.224,VALID,12,VALID,0.45,
2008-06-01, 02:06:05,VALID,1002.71,VALID,0,VALID,93.8047,VALID,0,VALID,25.1832,VALID,12,VALID,0.455469,
2008-06-01, 02:07:05,VALID,1002.7,VALID,0,VALID,93.7971,VALID,0,VALID,25.2046,VALID,21,VALID,0.676172,
2008-06-01, 02:08:05,VALID,1002.68,VALID,0,VALID,93.8352,VALID,0,VALID,25.1851,VALID,5,VALID,0.651563,
2008-06-01, 02:09:05,VALID,1002.67,VALID,0,VALID,93.881,VALID,0,VALID,25.1851,VALID,21,VALID,0.169141,
2008-06-01, 02:10:05,VALID,1002.62,VALID,0,VALID,93.8352,VALID,0,VALID,25.1851,VALID,20,VALID,0.590234,
2008-06-01, 02:11:05,VALID,1002.65,VALID,0,VALID,93.8352,VALID,0,VALID,25.1656,VALID,15,VALID,0.565625,
2008-06-01, 02:12:05,VALID,1002.64,VALID,0,VALID,93.82,VALID,0,VALID,25.187,VALID,28,VALID,0.609375,
2008-06-01, 02:13:05,VALID,1002.65,VALID,0,VALID,93.5911,VALID,0,VALID,25.2435,VALID,30,VALID,0.800781,
2008-06-01, 02:14:05,VALID,1002.6,VALID,0,VALID,93.2554,VALID,0,VALID,25.3019,VALID,12,VALID,1.30273,
2008-06-01, 02:15:05,VALID,1002.59,VALID,0,VALID,92.7596,VALID,0,VALID,25.3604,VALID,103,VALID,1.27891,
2008-06-01, 02:16:05,VALID,1002.62,VALID,0,VALID,92.5917,VALID,0,VALID,25.4188,VALID,22,VALID,0.438281,
2008-06-01, 02:17:05,VALID,1002.65,VALID,0,VALID,92.2561,VALID,0,VALID,25.4188,VALID,51,VALID,0.944531,
2008-06-01, 02:18:05,VALID,1002.68,VALID,0,VALID,92.0119,VALID,0,VALID,25.4363,VALID,43,VALID,0.835938,
2008-06-01, 02:19:05,VALID,1002.74,VALID,0,VALID,91.8975,VALID,0,VALID,25.4577,VALID,57,VALID,0.662891,
2008-06-01, 02:20:05,VALID,1002.72,VALID,0,VALID,91.7297,VALID,0,VALID,25.4363,VALID,59,VALID,1.02969,
2008-06-01, 02:21:05,VALID,1002.66,VALID,0,VALID,91.5466,VALID,0,VALID,25.4753,VALID,30,VALID,0.748828,
2008-06-01, 02:22:05,VALID,1002.64,VALID,0,VALID,91.4703,VALID,0,VALID,25.4948,VALID,24,VALID,0.405469,
2008-06-01, 02:23:05,VALID,1002.68,VALID,0,VALID,91.2643,VALID,0,VALID,25.5162,VALID,27,VALID,0.689453,
2008-06-01, 02:24:05,VALID,1002.73,VALID,0,VALID,91.2033,VALID,0,VALID,25.4948,VALID,89,VALID,0.902344,
2008-06-01, 02:25:05,VALID,1002.76,VALID,0,VALID,91.188,VALID,0,VALID,25.4558,VALID,91,VALID,0.717578,
2008-06-01, 02:26:05,VALID,1002.74,VALID,0,VALID,91.0583,VALID,0,VALID,25.4753,VALID,107,VALID,1.1043,
2008-06-01, 02:27:05,VALID,1002.7,VALID,0,VALID,90.9134,VALID,0,VALID,25.5162,VALID,68,VALID,0.776953,
2008-06-01, 02:28:05,VALID,1002.67,VALID,0,VALID,90.8752,VALID,0,VALID,25.5162,VALID,56,VALID,0.2375,
2008-06-01, 02:29:05,VALID,1002.69,VALID,0,VALID,90.6998,VALID,0,VALID,25.5162,VALID,81,VALID,1.12734,
2008-06-01, 02:30:05,VALID,1002.68,VALID,0,VALID,90.6082,VALID,0,VALID,25.5357,VALID,71,VALID,0.984766,
2008-06-01, 02:31:05,VALID,1002.71,VALID,0,VALID,90.5624,VALID,0,VALID,25.5337,VALID,90,VALID,0.808203,
2008-06-01, 02:32:05,VALID,1002.68,VALID,0,VALID,90.4251,VALID,0.100563,VALID,25.5142,VALID,73,VALID,1.24961,
2008-06-01, 02:33:05,VALID,1002.69,VALID,0,VALID,90.2954,VALID,0,VALID,25.5337,VALID,81,VALID,0.95625,
2008-06-01, 02:34:05,VALID,1002.73,VALID,0,VALID,90.1505,VALID,0.100563,VALID,25.5921,VALID,104,VALID,0.605078,
2008-06-01, 02:35:05,VALID,1002.74,VALID,0,VALID,90.0437,VALID,0,VALID,25.5941,VALID,80,VALID,0.510938,
2008-06-01, 02:36:05,VALID,1002.72,VALID,0,VALID,90.12,VALID,0.100563,VALID,25.5727,VALID,33,VALID,0.540234,
2008-06-01, 02:37:05,VALID,1002.72,VALID,0,VALID,90.2191,VALID,0,VALID,25.5142,VALID,39,VALID,0.584375,
2008-06-01, 02:38:05,VALID,1002.68,VALID,0,VALID,90.2191,VALID,0,VALID,25.5162,VALID,16,VALID,1.20664,
2008-06-01, 02:39:05,VALID,1002.67,VALID,0,VALID,90.0132,VALID,0,VALID,25.5532,VALID,40,VALID,1.25781,
2008-06-01, 02:40:05,VALID,1002.71,VALID,0,VALID,89.9598,VALID,0,VALID,25.5746,VALID,37,VALID,0.928516,
2008-06-01, 02:41:05,VALID,1002.73,VALID,0,VALID,90.0589,VALID,0,VALID,25.5532,VALID,52,VALID,0.409375,
2008-06-01, 02:42:05,VALID,1002.7,VALID,0,VALID,89.9826,VALID,0,VALID,25.5142,VALID,28,VALID,1.51172,
2008-06-01, 02:43:05,VALID,1002.71,VALID,0,VALID,89.975,VALID,0,VALID,25.5551,VALID,19,VALID,0.583984,
2008-06-01, 02:44:05,VALID,1002.73,VALID,0,VALID,89.9979,VALID,0,VALID,25.5142,VALID,36,VALID,0.872656,
2008-06-01, 02:45:05,VALID,1002.74,VALID,0,VALID,89.9903,VALID,0,VALID,25.5142,VALID,22,VALID,0.858203,
2008-06-01, 02:46:05,VALID,1002.73,VALID,0,VALID,90.0055,VALID,0,VALID,25.5357,VALID,15,VALID,0.7,
2008-06-01, 02:47:05,VALID,1002.73,VALID,0,VALID,90.0284,VALID,0,VALID,25.4948,VALID,44,VALID,0.295312,
2008-06-01, 02:48:05,VALID,1002.71,VALID,0,VALID,90.0589,VALID,0,VALID,25.4772,VALID,50,VALID,0.434766,
2008-06-01, 02:49:05,VALID,1002.68,VALID,0.5,VALID,90.1429,VALID,0,VALID,25.4558,VALID,22,VALID,0.688281,
2008-06-01, 02:50:05,VALID,1002.7,VALID,0,VALID,90.1123,VALID,0,VALID,25.4753,VALID,39,VALID,0.708594,
2008-06-01, 02:51:05,VALID,1002.72,VALID,0,VALID,90.0284,VALID,0,VALID,25.4967,VALID,354,VALID,0.424219,
2008-06-01, 02:52:05,VALID,1002.73,VALID,0,VALID,90.036,VALID,0,VALID,25.4558,VALID,95,VALID,0.529688,
2008-06-01, 02:53:05,VALID,1002.73,VALID,0,VALID,89.9979,VALID,0,VALID,25.4753,VALID,25,VALID,0.68125,
2008-06-01, 02:54:05,VALID,1002.77,VALID,0,VALID,90.12,VALID,0,VALID,25.4753,VALID,33,VALID,0.649219,
2008-06-01, 02:55:05,VALID,1002.73,VALID,0,VALID,90.2573,VALID,0.100563,VALID,25.4169,VALID,48,VALID,0.207031,
2008-06-01, 02:56:05,VALID,1002.77,VALID,0,VALID,90.448,VALID,0,VALID,25.3584,VALID,37,VALID,0.403125,
2008-06-01, 02:57:05,VALID,1002.76,VALID,0,VALID,90.5853,VALID,0,VALID,25.3604,VALID,18,VALID,0.817187,
2008-06-01, 02:58:05,VALID,1002.75,VALID,0,VALID,90.5548,VALID,0,VALID,25.3604,VALID,4,VALID,0.846875,
2008-06-01, 02:59:05,VALID,1002.71,VALID,0,VALID,90.4099,VALID,0,VALID,25.3993,VALID,58,VALID,0.638281,
2008-06-01, 03:00:05,VALID,1002.69,VALID,0,VALID,90.3336,VALID,0,VALID,25.4188,VALID,96,VALID,0.825781,
2008-06-01, 03:01:05,VALID,1002.66,VALID,0,VALID,90.3031,VALID,0,VALID,25.4188,VALID,33,VALID,0.613281,
2008-06-01, 03:02:04,VALID,1002.63,VALID,0,VALID,90.2878,VALID,0,VALID,25.4383,VALID,16,VALID,1.19961,
2008-06-01, 03:03:04,VALID,1002.62,VALID,0,VALID,90.1734,VALID,0,VALID,25.4363,VALID,353,VALID,0.342187,
2008-06-01, 03:04:04,VALID,1002.63,VALID,0,VALID,90.1123,VALID,0,VALID,25.4577,VALID,8,VALID,0.807031,
2008-06-01, 03:05:04,VALID,1002.64,VALID,0,VALID,90.0818,VALID,0,VALID,25.4577,VALID,13,VALID,0.610547,
2008-06-01, 03:06:04,VALID,1002.62,VALID,0,VALID,90.2039,VALID,0,VALID,25.3974,VALID,16,VALID,1.20273,
2008-06-01, 03:07:04,VALID,1002.61,VALID,0,VALID,90.4022,VALID,0,VALID,25.3798,VALID,21,VALID,1.02109,
2008-06-01, 03:08:04,VALID,1002.61,VALID,0,VALID,90.4327,VALID,0,VALID,25.3779,VALID,9,VALID,0.964453,
2008-06-01, 03:09:04,VALID,1002.58,VALID,0,VALID,90.3488,VALID,0,VALID,25.3779,VALID,356,VALID,1.07422,
2008-06-01, 03:10:04,VALID,1002.55,VALID,0,VALID,90.4022,VALID,0,VALID,25.3779,VALID,7,VALID,1.15039,
2008-06-01, 03:11:04,VALID,1002.53,VALID,0,VALID,90.242,VALID,0,VALID,25.4577,VALID,14,VALID,1.30742,
2008-06-01, 03:12:04,VALID,1002.49,VALID,0,VALID,89.9979,VALID,0,VALID,25.5162,VALID,21,VALID,1.36797,
2008-06-01, 03:13:04,VALID,1002.48,VALID,0,VALID,89.8224,VALID,0,VALID,25.5357,VALID,352,VALID,1.02148,
2008-06-01, 03:14:04,VALID,1002.47,VALID,0,VALID,89.8758,VALID,0,VALID,25.5376,VALID,18,VALID,1.03945,
2008-06-01, 03:15:04,VALID,1002.4,VALID,0,VALID,89.853,VALID,0,VALID,25.4928,VALID,9,VALID,0.915625,
2008-06-01, 03:16:04,VALID,1002.38,VALID,0,VALID,89.9216,VALID,0,VALID,25.5142,VALID,6,VALID,0.925391,
2008-06-01, 03:17:04,VALID,1002.33,VALID,0,VALID,89.8758,VALID,0.100563,VALID,25.4948,VALID,354,VALID,1.14648,
2008-06-01, 03:18:04,VALID,1002.36,VALID,0,VALID,89.8987,VALID,0,VALID,25.4948,VALID,22,VALID,1.48125,
2008-06-01, 03:19:04,VALID,1002.39,VALID,0,VALID,89.8911,VALID,0.100563,VALID,25.5337,VALID,355,VALID,0.367578,
2008-06-01, 03:20:04,VALID,1002.36,VALID,0,VALID,89.8301,VALID,0,VALID,25.5142,VALID,12,VALID,1.50234,
2008-06-01, 03:21:04,VALID,1002.39,VALID,0,VALID,89.8072,VALID,0,VALID,25.5337,VALID,15,VALID,0.823047,
2008-06-01, 03:22:04,VALID,1002.41,VALID,0,VALID,89.769,VALID,0,VALID,25.5746,VALID,81,VALID,0.601172,
2008-06-01, 03:23:04,VALID,1002.39,VALID,0,VALID,89.6775,VALID,0,VALID,25.5337,VALID,4,VALID,1.30039,
2008-06-01, 03:24:04,VALID,1002.39,VALID,0,VALID,89.6241,VALID,0,VALID,25.5727,VALID,22,VALID,0.738281,
2008-06-01, 03:25:04,VALID,1002.37,VALID,0,VALID,89.5173,VALID,0.100563,VALID,25.5727,VALID,19,VALID,1.33438,
2008-06-01, 03:26:04,VALID,1002.34,VALID,0,VALID,89.3647,VALID,0,VALID,25.6506,VALID,36,VALID,0.843359,
2008-06-01, 03:27:04,VALID,1002.37,VALID,0,VALID,89.1053,VALID,0,VALID,25.672,VALID,46,VALID,1.39609,
2008-06-01, 03:28:04,VALID,1002.38,VALID,0,VALID,88.9375,VALID,0,VALID,25.6895,VALID,84,VALID,1.09102,
2008-06-01, 03:29:04,VALID,1002.38,VALID,0,VALID,88.7391,VALID,0,VALID,25.7285,VALID,23,VALID,0.740234,
2008-06-01, 03:30:04,VALID,1002.39,VALID,0,VALID,88.6857,VALID,0,VALID,25.7109,VALID,11,VALID,0.837109,
2008-06-01, 03:31:04,VALID,1002.4,VALID,0,VALID,88.5942,VALID,0,VALID,25.7109,VALID,58,VALID,0.669922,
2008-06-01, 03:32:04,VALID,1002.44,VALID,0,VALID,88.5103,VALID,0,VALID,25.7519,VALID,54,VALID,0.492578,
2008-06-01, 03:33:04,VALID,1002.48,VALID,0,VALID,88.5103,VALID,0,VALID,25.7499,VALID,88,VALID,0.384766,
2008-06-01, 03:34:04,VALID,1002.51,VALID,0,VALID,88.5179,VALID,0,VALID,25.7304,VALID,97,VALID,0.682813,
2008-06-01, 03:35:04,VALID,1002.48,VALID,0,VALID,88.495,VALID,0,VALID,25.7519,VALID,114,VALID,1.18555,
2008-06-01, 03:36:04,VALID,1002.54,VALID,0,VALID,88.4569,VALID,0,VALID,25.7304,VALID,88,VALID,0.68125,
2008-06-01, 03:37:04,VALID,1002.54,VALID,0,VALID,88.5408,VALID,0,VALID,25.7109,VALID,93,VALID,0.855859,
2008-06-01, 03:38:04,VALID,1002.54,VALID,0,VALID,88.5103,VALID,0,VALID,25.7304,VALID,96,VALID,0.867578,
2008-06-01, 03:39:04,VALID,1002.56,VALID,0,VALID,88.289,VALID,0,VALID,25.7499,VALID,81,VALID,1.3207,
2008-06-01, 03:40:04,VALID,1002.55,VALID,0,VALID,88.0068,VALID,0,VALID,25.8687,VALID,68,VALID,0.877734,
2008-06-01, 03:41:04,VALID,1002.56,VALID,0,VALID,87.8618,VALID,0,VALID,25.8882,VALID,53,VALID,0.629297,
2008-06-01, 03:42:04,VALID,1002.58,VALID,0,VALID,87.8084,VALID,0,VALID,25.8882,VALID,60,VALID,0.703125,
2008-06-01, 03:43:04,VALID,1002.61,VALID,0,VALID,87.6711,VALID,0,VALID,25.8668,VALID,37,VALID,1.47734,
2008-06-01, 03:44:04,VALID,1002.66,VALID,0,VALID,87.488,VALID,0,VALID,25.9467,VALID,91,VALID,1.44219,
2008-06-01, 03:45:04,VALID,1002.63,VALID,0,VALID,87.5033,VALID,0,VALID,25.9427,VALID,64,VALID,0.658984,
2008-06-01, 03:46:04,VALID,1002.67,VALID,0,VALID,87.5338,VALID,0,VALID,25.9038,VALID,79,VALID,0.571484,